Weather History for Marianna, FL

Change the Weather History Date:

Wednesday, May 22, 2013

  Actual Average Record
Temperature  
Mean Temperature 81 °F 77 °F  
Max Temperature 92 °F 88 °F 98 °F (2011)
Min Temperature 70 °F 65 °F 52 °F (2002)
Degree Days  
Heating Degree Days 0    
Month to date heating degree days 21  
Since 1 July heating degree days 1377  
Cooling Degree Days 16    
Month to date cooling degree days 136  
Year to date cooling degree days 310  
Growing Degree Days 31 (Base 50)    
Moisture  
Dew Point 67 °F    
Average Humidity 66    
Maximum Humidity 90    
Minimum Humidity 41    
Precipitation  
Precipitation 0.00 in 0.11 in 0.52 in (2003)
Month to date precipitation 0.67 1.83  
Year to date precipitation 20.90 21.06  
Sea Level Pressure  
Sea Level Pressure 29.95 in    
Wind  
Wind Speed 4 mph (SSW)    
Max Wind Speed 21 mph    
Max Gust Speed 26 mph    
Visibility 10 miles    
Events      
T = Trace of Precipitation, MM = Missing Value Source: NWS Daily Summary

Daily Weather History Graph

Daily Weather History Graph

Search for Another Location

Airport:

Trip Planner

Search our weather history database for the weather conditions in past years. The results will help you decide how hot, cold, wet, or windy it might be!

Date:

Astronomy

May. 22, 2013 Rise Set
Actual Time 5:41 AM CDT 7:33 PM CDT
Civil Twilight 5:14 AM CDT 8:00 PM CDT
Nautical Twilight 4:42 AM CDT 8:32 PM CDT
Astronomical Twilight 4:07 AM CDT 9:07 PM CDT
Moon 5:03 PM CDT (5/22) 3:34 AM CDT (5/22)
Length of Visible Light 14h 45m
Length of Day
13h 51m
Waxing Gibbous, 91% of the Moon is Illuminated
May 22
Waxing Gibbous
May 24
Full
May 31
Last Quarter
Jun 8
New
Jun 16
First Quarter

Hourly Weather History & Observations

Time (CDT) Temp. Heat Index Dew Point Humidity Pressure Visibility Wind Dir Wind Speed Gust Speed Precip Events Conditions
12:29 AM 73.4 °F - 66.2 °F 78% 29.97 in 10.0 mi SSW 3.5 mph - N/A   Mostly Cloudy
12:43 AM 73.4 °F - 66.2 °F 78% 29.97 in 10.0 mi Calm Calm - N/A   Scattered Clouds
12:53 AM 72.0 °F - 66.9 °F 84% 29.96 in 10.0 mi Calm Calm - N/A   Partly Cloudy
1:53 AM 71.1 °F - 66.9 °F 87% 29.94 in 10.0 mi Calm Calm - N/A   Partly Cloudy
2:53 AM 71.1 °F - 68.0 °F 90% 29.92 in 10.0 mi SSE 4.6 mph - N/A   Mostly Cloudy
3:53 AM 72.0 °F - 68.0 °F 87% 29.94 in 10.0 mi Calm Calm - N/A   Overcast
4:08 AM 71.6 °F - 68.0 °F 88% 29.94 in 10.0 mi East 4.6 mph - N/A   Overcast
4:53 AM 72.0 °F - 68.0 °F 87% 29.94 in 10.0 mi Calm Calm - N/A   Overcast
5:53 AM 71.1 °F - 68.0 °F 90% 29.96 in 9.0 mi Calm Calm - N/A   Overcast
6:20 AM 71.6 °F - 68.0 °F 88% 29.98 in 8.0 mi Calm Calm - N/A   Partly Cloudy
6:53 AM 72.0 °F - 68.0 °F 87% 29.98 in 7.0 mi Calm Calm - N/A   Clear
7:53 AM 75.0 °F - 68.0 °F 79% 29.98 in 10.0 mi East 5.8 mph - N/A   Clear
8:53 AM 77.0 °F - 68.0 °F 74% 29.99 in 10.0 mi Calm Calm - N/A   Clear
9:53 AM 81.0 °F 83.3 °F 66.9 °F 62% 29.99 in 10.0 mi Calm Calm - N/A   Clear
10:11 AM 84.2 °F 86.6 °F 66.2 °F 55% 30.00 in 10.0 mi Calm Calm - N/A   Mostly Cloudy
10:22 AM 82.4 °F 84.6 °F 66.2 °F 58% 29.99 in 10.0 mi Calm Calm - N/A   Scattered Clouds
10:53 AM 82.9 °F 85.0 °F 66.0 °F 56% 29.99 in 10.0 mi Calm Calm - N/A   Clear
11:53 AM 87.1 °F 89.2 °F 66.0 °F 49% 29.99 in 10.0 mi South 8.1 mph - N/A   Clear
12:53 PM 86.0 °F 87.3 °F 64.0 °F 48% 29.95 in 10.0 mi Calm Calm - N/A   Partly Cloudy
1:53 PM 90.0 °F 91.7 °F 64.9 °F 43% 29.94 in 10.0 mi North 3.5 mph - N/A   Scattered Clouds
2:53 PM 91.0 °F 92.6 °F 64.0 °F 41% 29.89 in 10.0 mi NW 4.6 mph - N/A   Clear
3:53 PM 88.0 °F 89.6 °F 64.9 °F 46% 29.89 in 10.0 mi SSW 19.6 mph 26.5 mph N/A   Mostly Cloudy
4:53 PM 88.0 °F 88.7 °F 63.0 °F 43% 29.88 in 10.0 mi SSW 8.1 mph - N/A   Partly Cloudy
5:53 PM 86.0 °F 86.8 °F 63.0 °F 46% 29.87 in 10.0 mi South 8.1 mph - N/A   Clear
6:53 PM 84.0 °F 85.4 °F 64.0 °F 51% 29.88 in 10.0 mi South 3.5 mph - N/A   Clear
7:53 PM 81.0 °F 83.3 °F 66.9 °F 62% 29.90 in 10.0 mi SW 4.6 mph - N/A   Clear
8:53 PM 79.0 °F - 68.0 °F 69% 29.92 in 10.0 mi SSW 6.9 mph - N/A   Clear
9:53 PM 78.1 °F - 68.0 °F 71% 29.94 in 10.0 mi WSW 8.1 mph - N/A   Clear
10:53 PM 75.9 °F - 69.1 °F 79% 29.94 in 10.0 mi WSW 9.2 mph - N/A   Clear
11:53 PM 73.9 °F - 69.1 °F 85% 29.95 in 10.0 mi WSW 4.6 mph - N/A   Clear